Regional Weather Roundup
Issued by NWS

Home | Current Version | Previous Version | Graphics & Text | Print | Product List | Glossary On
Versions: 1 2 3 4 5 6 7 8 9 10 11 12 13 14 15 16 17 18 19 20 21 22 23 24 25 26 27 28 29 30 31 32 33 34 35 36 37 38 39 40 41 42 43 44 45 46 47 48 49 50
000
ASUS43 KIND 201959
RWRIN

WEATHER ROUNDUP FOR INDIANA
NATIONAL WEATHER SERVICE INDIANAPOLIS IN
400 PM EDT FRI APR 20 2018

NOTE: "FAIR" INDICATES FEW OR NO CLOUDS BELOW 12,000 FEET WITH NO
SIGNIFICANT WEATHER AND/OR OBSTRUCTIONS TO VISIBILITY.

* - STATION DOES NOT REPORT WEATHER SUCH AS PRECIPITATION OR FOG.

+ - STATION NOT QUALITY CONTROLLED BY THE NATIONAL WEATHER SERVICE.
    USE DATA WITH CAUTION...ESPECIALLY DEWPOINT AND RELATIVE
    HUMIDITY OBSERVATIONS.

INZ001>003-010>013-019-020-202100-
NORTHWEST INDIANA

CITY           SKY/WX    TMP DP  RH WIND       PRES   REMARKS
GARY /AIRPORT/ MOSUNNY   55  10  16 NE10      30.49F
KNOX *+        FAIR      59  21  23 NE7       30.45F
MONTICELLO +   FAIR      60  14  17 CALM      30.45F
RENSSELAER +   FAIR      61 -17   4 NE9G16    30.46F

$$

LMZ046-743>745-202100-
SOUTHERN LAKE MICHIGAN

STATION/POSITION TIME  TEMP    WIND        PRES    WAVE
                       AIR SEA DIR/SP/G            HT
                 (UTC) (F)     (DEG/KT/KT) (MB)    (FT)
BURNS HARBOR     1940   44      60/  7/  8 1032.8F
MICHIGAN CITY    1930   40      10/  5/  6   N/A

$$

INZ004-005-014>016-021>024-202100-
NORTH CENTRAL INDIANA

CITY           SKY/WX    TMP DP  RH WIND       PRES   REMARKS
ELKHART        FAIR      59  18  20 CALM      30.45F
GOSHEN         FAIR      58  22  24 E7        30.45F
PERU/GRISSOM   SUNNY     59  20  22 N10       30.44F
ROCHESTER +    FAIR      59  19  21 NE9       30.46F
SOUTH BEND     FAIR      57  21  24 N8        30.47F
WARSAW +       FAIR      55  25  30 NW7       30.46F

$$

INZ006>009-017-018-025>027-202100-
NORTHEAST INDIANA

CITY           SKY/WX    TMP DP  RH WIND       PRES   REMARKS
ANGOLA *+      FAIR      55  19  24 NW7       30.44F
FORT WAYNE     FAIR      58  21  24 VRB6      30.46F

$$

INZ028-029-035-036-043>045-051>053-202100-
WEST CENTRAL INDIANA

CITY           SKY/WX    TMP DP  RH WIND       PRES   REMARKS
GREENCASTLE +  FAIR      57  21  24 CALM      30.44F
LAFAYETTE      FAIR      58  22  24 MISG      30.45F
TERRE HAUTE    FAIR      61  22  22 NE7       30.43F

$$

INZ030>032-037>040-046>048-054>057-064-065-202100-
CENTRAL INDIANA

CITY           SKY/WX    TMP DP  RH WIND       PRES   REMARKS
ANDERSON       SUNNY     57  23  26 N6        30.45
COLUMBUS       SUNNY     59 N/A N/A NE6       30.45F
INDIANAPOLIS   FAIR      60  22  23 NE7       30.44F
-EAGLE CREEK   FAIR      60  26  27 N6        30.43F
KOKOMO +       FAIR      59  24  26 N7        30.46F
MT COMFORT *+  FAIR      57  32  38 NE9       30.45F
SHELBYVILLE    FAIR      61  23  23 NE9       30.43F
ZIONSVILLE +   FAIR      57  25  29 NE9       30.45F

$$

INZ033-034-041-042-049-050-058-059-202100-
EAST CENTRAL INDIANA

CITY           SKY/WX    TMP DP  RH WIND       PRES   REMARKS
MUNCIE         FAIR      59  21  23 VRB6      30.45F
RICHMOND +     FAIR      54  25  32 E7        30.45F

$$

INZ060-061-067>069-081>083-085>088-202100-
SOUTHWEST INDIANA

CITY           SKY/WX    TMP DP  RH WIND       PRES   REMARKS
EVANSVILLE     FAIR      64  24  21 E8        30.41F
HUNTINGBURG +  FAIR      62  24  23 NE9G16    30.41F

$$

INZ062-063-066-070>080-084-089>092-202100-
SOUTH CENTRAL AND SOUTHEAST INDIANA

CITY           SKY/WX    TMP DP  RH WIND       PRES   REMARKS
BLOOMINGTON    FAIR      61  20  20 NE7       30.42F
FRENCH LICK *+ FAIR      59   9  13 NE9       30.42F

$$





USA.gov is the U.S. government's official web portal to all federal, state and local government web resources and services.